UK-DMC 2

Last updated on Tue Sep 16 2025 00:02:37 GMT+0000 (Coordinated Universal Time)

1 35683U 09041C 25258.61833676 .00000837 00000+0 13079-3 0 9991 2 35683 97.8459 36.0827 0001610 92.0563 268.0831 14.75316854866077
UTC large
Height (km)
Speed (km/s)
/
Latitude / Longitude
Inclination (degrees)
Orbital Period (minutes)
Azimuth
Elevation
Range (km)
Doppler Factor

Next 0 passes for location: London (51.5072 / 0.1276)

Sorry there are no passes over London.